TimeEST,TemperatureF,Dew PointF,Humidity,Sea Level PressureIn,VisibilityMPH,Wind Direction,Wind SpeedMPH,Gust SpeedMPH,PrecipitationIn,Events,Conditions,WindDirDegrees,DateUTC
12:02 AM,19.9,17.1,89,29.81,1.0,West,9.2,-,0.00,Snow,Light Snow,270,2013-02-04 05:02:00
12:51 AM,19.4,17.6,93,29.81,1.8,West,8.1,-,0.00,Snow,Light Snow,280,2013-02-04 05:51:00
12:53 AM,19.9,17.1,89,29.83,1.8,West,6.9,-,0.00,Snow,Light Snow,270,2013-02-04 05:53:00
1:09 AM,19.9,17.1,89,29.81,3.0,West,5.8,-,0.00,Snow,Light Snow,270,2013-02-04 06:09:00
1:20 AM,19.9,17.1,89,29.80,4.0,West,9.2,-,0.00,Snow,Light Snow,280,2013-02-04 06:20:00
1:53 AM,19.9,15.1,81,29.83,6.0,West,9.2,-,0.00,Snow,Light Snow,280,2013-02-04 06:53:00
2:26 AM,19.9,14.0,78,29.82,1.8,West,12.7,-,0.00,Snow,Light Snow,270,2013-02-04 07:26:00
2:49 AM,19.4,14.0,80,29.82,2.5,West,9.2,-,0.00,Snow,Light Snow,260,2013-02-04 07:49:00
2:53 AM,18.0,15.1,88,29.84,2.0,West,10.4,-,0.00,Snow,Light Snow,270,2013-02-04 07:53:00
3:08 AM,18.0,15.1,88,29.82,3.0,West,10.4,-,0.00,Snow,Light Snow,260,2013-02-04 08:08:00
3:27 AM,19.0,15.1,85,29.83,2.0,West,9.2,-,0.00,Snow,Light Snow,270,2013-02-04 08:27:00
3:33 AM,19.0,15.1,85,29.83,1.8,West,6.9,-,0.00,Snow,Light Snow,260,2013-02-04 08:33:00
3:49 AM,17.6,14.0,86,29.83,2.0,West,10.4,-,0.00,Snow,Light Snow,270,2013-02-04 08:49:00
3:53 AM,18.0,14.0,84,29.85,2.0,West,10.4,-,0.00,Snow,Light Snow,280,2013-02-04 08:53:00
4:15 AM,18.0,14.0,84,29.84,3.0,West,6.9,-,0.00,Snow,Light Snow,270,2013-02-04 09:15:00
4:29 AM,18.0,14.0,84,29.84,2.0,West,8.1,-,0.00,Snow,Light Snow,260,2013-02-04 09:29:00
5:53 AM,18.0,15.1,88,29.87,0.8,WNW,8.1,-,0.01,Snow,Light Snow,300,2013-02-04 10:53:00
6:00 AM,17.1,15.1,92,29.85,0.5,WNW,6.9,-,0.01,Fog-Snow,Snow,290,2013-02-04 11:00:00
6:21 AM,17.1,14.0,88,29.86,1.0,West,9.2,-,0.02,Snow,Light Snow,270,2013-02-04 11:21:00
6:30 AM,17.1,14.0,88,29.85,1.0,West,9.2,-,0.02,Snow,Light Snow,270,2013-02-04 11:30:00
6:41 AM,17.1,14.0,88,29.86,0.8,West,8.1,-,0.02,Snow,Light Snow,270,2013-02-04 11:41:00
6:48 AM,17.6,14.0,86,29.86,1.2,West,10.4,-,0.02,Snow,Light Snow,270,2013-02-04 11:48:00
6:53 AM,17.1,14.0,88,29.88,2.0,West,10.4,-,0.02,Snow,Light Snow,280,2013-02-04 11:53:00
7:08 AM,17.1,12.9,84,29.87,3.0,West,10.4,-,0.00,Snow,Light Snow,270,2013-02-04 12:08:00
7:14 AM,17.1,14.0,88,29.87,1.8,West,10.4,-,0.00,Snow,Light Snow,270,2013-02-04 12:14:00
7:30 AM,17.1,14.0,88,29.87,3.0,West,10.4,-,0.00,Snow,Light Snow,270,2013-02-04 12:30:00
7:53 AM,17.1,14.0,88,29.91,6.0,West,6.9,-,0.00,,Overcast,280,2013-02-04 12:53:00
8:00 AM,17.1,14.0,88,29.89,5.0,West,8.1,-,N/A,,Overcast,270,2013-02-04 13:00:00
8:53 AM,19.0,15.1,85,29.91,1.5,West,12.7,-,0.00,Snow,Light Snow,280,2013-02-04 13:53:00
9:16 AM,19.0,15.1,85,29.89,0.8,WNW,11.5,-,0.00,Snow,Light Snow,290,2013-02-04 14:16:00
9:23 AM,19.0,15.1,85,29.89,0.5,WNW,9.2,-,0.00,Fog-Snow,Snow,300,2013-02-04 14:23:00
9:53 AM,19.0,16.0,88,29.91,1.0,NW,9.2,-,0.00,Snow,Light Snow,310,2013-02-04 14:53:00
9:59 AM,19.0,14.0,81,29.89,2.0,NW,12.7,-,0.00,Snow,Light Snow,310,2013-02-04 14:59:00
10:11 AM,19.0,12.9,77,29.89,5.0,WNW,11.5,-,0.00,,Haze,290,2013-02-04 15:11:00
10:31 AM,19.0,12.9,77,29.89,2.0,NW,12.7,-,0.00,Snow,Light Snow,310,2013-02-04 15:31:00
10:40 AM,19.0,12.9,77,29.89,1.2,NW,11.5,-,0.00,Snow,Light Snow,310,2013-02-04 15:40:00
10:53 AM,19.0,12.9,77,29.91,1.8,WNW,9.2,-,0.00,Snow,Light Snow,300,2013-02-04 15:53:00
10:56 AM,19.0,12.9,77,29.89,3.0,WNW,11.5,-,0.00,Snow,Light Snow,290,2013-02-04 15:56:00
11:05 AM,19.0,10.9,71,29.89,2.5,WNW,11.5,-,0.00,Snow,Light Snow,290,2013-02-04 16:05:00
11:13 AM,19.0,10.9,71,29.89,2.5,WNW,10.4,19.6,0.00,,Haze,300,2013-02-04 16:13:00
11:53 AM,19.9,9.0,62,29.91,2.5,WNW,17.3,26.5,0.00,,Haze,300,2013-02-04 16:53:00
12:00 PM,19.0,9.0,65,29.89,10.0,WNW,19.6,26.5,N/A,,Overcast,290,2013-02-04 17:00:00
12:53 PM,19.0,9.0,65,29.91,10.0,WNW,19.6,24.2,0.00,,Overcast,300,2013-02-04 17:53:00
1:53 PM,19.0,8.1,62,29.91,10.0,West,17.3,-,N/A,,Overcast,280,2013-02-04 18:53:00
2:53 PM,19.0,9.0,65,29.92,10.0,WNW,11.5,-,N/A,,Overcast,300,2013-02-04 19:53:00
3:53 PM,19.0,9.0,65,29.93,10.0,West,11.5,-,N/A,,Overcast,280,2013-02-04 20:53:00
4:45 PM,18.0,10.9,74,29.91,4.0,WNW,9.2,-,0.00,Snow,Light Snow,300,2013-02-04 21:45:00
4:53 PM,18.0,10.9,74,29.93,5.0,West,9.2,-,0.00,Snow,Light Snow,280,2013-02-04 21:53:00
5:23 PM,18.0,12.0,78,29.91,2.0,WNW,8.1,-,0.00,Snow,Light Snow,300,2013-02-04 22:23:00
5:30 PM,17.1,12.0,81,29.91,1.8,WNW,9.2,-,0.00,Snow,Light Snow,290,2013-02-04 22:30:00
5:37 PM,17.1,12.0,81,29.91,2.5,WNW,6.9,-,0.00,Snow,Light Snow,290,2013-02-04 22:37:00
5:53 PM,17.1,12.9,84,29.94,3.0,WNW,6.9,-,0.00,Snow,Light Snow,300,2013-02-04 22:53:00
6:01 PM,17.1,12.9,84,29.91,2.0,WNW,5.8,-,0.00,Snow,Light Snow,300,2013-02-04 23:01:00
6:53 PM,17.1,14.0,88,29.94,2.0,Calm,Calm,-,0.00,Snow,Light Snow,0,2013-02-04 23:53:00
7:00 PM,17.1,14.0,88,29.92,1.5,Calm,Calm,-,0.00,Snow,Light Snow,0,2013-02-05 00:00:00
7:10 PM,17.1,12.9,84,29.92,2.5,Calm,Calm,-,0.00,Snow,Light Snow,0,2013-02-05 00:10:00
7:19 PM,17.1,14.0,88,29.92,1.5,Calm,Calm,-,0.00,Snow,Light Snow,0,2013-02-05 00:19:00
7:24 PM,17.1,14.0,88,29.92,3.0,Calm,Calm,-,0.00,Snow,Light Snow,0,2013-02-05 00:24:00
7:31 PM,17.1,14.0,88,29.93,2.5,Calm,Calm,-,0.00,Snow,Light Snow,0,2013-02-05 00:31:00
7:35 PM,17.1,12.9,84,29.93,1.5,Calm,Calm,-,0.00,Snow,Light Snow,0,2013-02-05 00:35:00
7:53 PM,17.1,14.0,88,29.95,2.0,Calm,Calm,-,0.01,Snow,Light Snow,0,2013-02-05 00:53:00
8:05 PM,17.1,14.0,88,29.93,1.2,Calm,Calm,-,0.00,Snow,Light Snow,0,2013-02-05 01:05:00
8:38 PM,17.1,14.0,88,29.93,2.0,Calm,Calm,-,0.00,Snow,Light Snow,0,2013-02-05 01:38:00
8:53 PM,17.1,14.0,88,29.95,2.5,Calm,Calm,-,0.00,Snow,Light Snow,0,2013-02-05 01:53:00
9:00 PM,17.1,14.0,88,29.93,1.5,Calm,Calm,-,0.00,Snow,Light Snow,0,2013-02-05 02:00:00
9:06 PM,17.1,14.0,88,29.93,3.0,Calm,Calm,-,0.00,Snow,Light Snow,0,2013-02-05 02:06:00
9:53 PM,16.0,12.9,88,29.96,6.0,Calm,Calm,-,0.00,Snow,Light Snow,0,2013-02-05 02:53:00
10:53 PM,14.0,12.0,92,29.96,6.0,Calm,Calm,-,0.00,Snow,Light Snow,0,2013-02-05 03:53:00
11:53 PM,12.0,9.0,88,29.97,6.0,Calm,Calm,-,0.00,Snow,Light Snow,0,2013-02-05 04:53:00